Theta_e
317 317 318 319 319 320 321 320 320 322 321 322 323 323 323 323 323 323 323 323 323 324 324 324 323 324 324 324 324 324 319 307 307 305 304 304 314 321 323 325 325 322 318 307 305 305 304 304 304 304 304 304 300 302 298 299 298 302 297 296 293 293 292 294 293 294 295 294 295 295 296 297 294 295 297 298 297 298 299 298 300 300 299 301 300 301 302 302
320 319 319 319 320 321 321 321 322 322 323 322 323 323 323 323 323 323 323 323 324 325 324 324 323 323 323 323 324 321 312 307 305 305 303 313 321 321 323 324 321 316 312 308 305 304 304 302 301 304 304 301 301 299 300 298 299 298 295 297 292 293 293 295 296 296 294 295 297 296 296 296 296 297 297 295 296 298 297 298 300 299 300 301 300 300 300 300
319 320 321 320 321 321 321 322 322 322 322 322 322 323 323 323 323 323 322 323 324 325 324 325 324 323 322 324 324 318 309 304 305 302 305 319 320 321 322 324 321 311 306 306 303 304 304 303 301 302 301 300 299 298 301 296 300 293 298 293 293 293 292 294 296 295 295 297 296 296 295 294 296 296 298 295 296 298 295 296 298 298 298 300 301 301 301 300
319 320 320 321 320 321 322 322 322 322 323 324 324 324 323 322 323 323 324 324 325 325 325 324 323 323 322 320 320 318 307 306 298 301 307 320 319 320 321 318 317 313 308 302 302 303 303 304 304 304 302 300 299 298 298 296 298 295 297 293 293 292 293 293 294 295 296 298 296 296 295 293 296 296 296 296 294 295 297 299 299 298 299 301 302 301 302 300
319 319 320 320 320 321 321 321 322 323 322 324 324 323 323 324 324 324 324 324 325 324 325 324 324 322 320 317 311 310 306 297 297 304 309 317 318 319 320 314 309 311 306 302 304 303 305 303 302 302 303 298 300 299 295 296 296 296 290 291 292 292 293 293 294 295 295 296 297 295 293 294 298 295 295 296 293 294 298 301 302 303 303 302 303 302 301 300
318 318 319 319 320 321 322 322 322 322 322 323 324 323 324 324 324 324 324 325 324 325 325 325 324 322 318 315 311 309 304 290 303 304 314 316 316 317 315 317 314 309 306 303 302 303 302 303 302 302 298 298 295 296 295 296 295 292 291 292 293 292 293 293 294 294 295 295 295 294 296 296 295 296 297 296 296 299 305 305 305 304 304 305 303 303 301 301
317 318 318 319 320 320 321 321 321 322 323 323 323 324 324 323 324 324 324 325 326 326 326 324 323 321 319 317 317 308 302 300 304 307 310 314 314 313 314 309 311 311 308 304 302 303 301 301 301 298 297 296 295 294 294 296 298 298 291 292 292 294 294 292 295 292 294 295 295 296 296 294 295 293 297 294 298 301 305 304 302 304 304 302 302 302 301 302
318 318 319 319 319 319 319 320 321 321 322 323 323 324 325 323 323 324 324 324 325 325 325 324 323 320 316 313 312 303 301 299 305 307 309 312 308 306 310 308 308 309 304 300 301 302 303 301 298 299 297 297 294 296 294 296 297 295 292 292 292 294 293 293 294 294 294 294 294 294 293 294 295 295 293 294 297 300 301 304 304 301 301 301 300 302 302 302
319 319 319 319 318 317 318 319 320 321 322 323 323 324 324 323 323 322 323 324 324 324 324 322 321 317 314 313 305 301 297 304 306 306 306 304 304 304 307 306 304 305 301 302 301 302 303 298 300 301 296 295 295 296 296 297 293 295 292 293 293 293 293 294 294 294 294 295 294 293 294 295 294 294 292 296 298 300 301 301 301 302 300 300 300 301 302 302
319 319 318 318 318 318 318 319 320 321 322 323 323 323 324 323 322 322 323 323 323 324 322 321 321 316 317 308 309 298 301 305 307 307 305 303 304 305 305 303 303 304 304 300 302 302 302 298 298 300 300 296 297 294 295 298 293 295 294 295 294 292 294 294 294 293 293 295 294 293 294 295 294 293 292 300 300 300 299 299 300 299 298 299 301 302 303 302
319 318 318 318 319 319 320 320 320 321 321 321 322 323 324 323 322 322 323 323 321 322 320 323 319 315 310 308 302 296 305 306 308 307 305 304 304 303 302 303 303 304 303 301 300 301 302 301 303 302 304 297 299 295 296 293 297 296 296 297 295 294 294 294 294 293 295 294 293 294 293 296 293 293 292 298 298 298 297 298 298 298 298 299 300 300 302 302
319 318 318 318 319 319 320 320 320 321 321 322 323 324 324 321 321 322 324 322 321 320 321 319 315 311 308 304 301 299 306 306 307 306 307 305 303 302 304 304 305 304 305 301 300 300 302 302 304 305 297 301 294 296 294 295 296 295 295 293 293 294 294 294 294 293 293 294 293 293 292 291 292 291 297 299 300 297 297 297 298 299 299 299 300 300 300 301
317 318 317 319 319 319 320 319 320 321 321 323 323 323 321 321 320 321 322 320 322 321 319 319 313 313 313 301 301 306 305 307 306 306 307 307 306 306 306 306 305 305 305 303 300 301 301 302 305 299 300 299 295 293 297 298 294 296 295 294 292 293 292 293 293 293 292 294 293 293 287 294 294 295 299 300 297 296 295 297 298 299 299 299 300 300 300 301
317 317 318 318 319 320 320 320 320 321 322 322 321 321 320 320 320 321 322 320 320 322 318 317 315 312 307 300 304 305 305 306 306 307 304 306 307 306 307 306 306 306 306 303 303 305 305 306 303 301 303 299 295 299 297 297 298 293 292 295 290 289 289 292 293 292 292 294 293 294 286 293 296 298 299 299 296 295 295 297 299 299 299 299 300 300 299 300
317 317 317 319 319 319 319 320 320 320 320 321 320 319 319 319 319 318 319 317 318 320 319 318 316 314 303 302 305 306 310 306 307 303 304 304 304 305 304 305 303 304 305 305 303 303 303 307 305 300 295 298 299 298 294 295 294 293 291 289 290 289 291 291 291 292 291 292 294 295 287 291 296 298 298 297 295 294 294 297 298 299 299 299 299 299 300 300
317 317 318 318 318 318 319 319 319 319 320 319 318 319 320 319 318 319 318 315 316 318 319 319 312 309 303 298 303 310 306 303 303 303 303 304 304 304 303 301 303 304 305 302 303 304 306 303 298 298 297 299 298 295 293 292 293 292 290 288 287 288 290 292 291 291 292 292 294 294 289 293 294 297 293 294 294 293 295 297 298 298 299 298 298 299 299 300
316 317 317 318 318 318 319 319 318 320 318 318 318 317 317 319 318 318 315 313 311 315 312 308 306 308 299 304 307 302 300 303 303 304 304 304 303 301 302 304 301 303 303 304 305 308 303 301 296 298 299 295 293 295 290 289 288 290 291 290 289 287 289 289 291 292 294 292 291 293 289 291 295 297 298 295 295 295 295 296 297 298 299 299 299 298 298 299
316 317 317 317 318 318 318 319 319 318 316 314 315 313 312 315 317 316 314 314 314 311 307 312 305 307 300 305 298 299 301 300 303 301 301 304 303 304 303 302 300 301 304 303 303 301 300 298 300 295 297 297 296 293 289 286 287 288 289 288 288 288 287 289 289 292 291 292 290 292 290 291 294 296 298 299 299 296 296 296 297 298 298 298 298 298 298 298
316 316 317 318 317 318 318 318 318 317 316 315 315 315 314 312 320 312 311 310 312 306 302 301 304 298 294 298 300 301 301 301 300 302 303 304 304 302 302 302 301 301 300 300 297 300 300 299 299 296 291 292 291 290 290 288 289 290 290 289 288 287 288 289 293 292 292 292 290 291 289 292 295 296 298 300 299 297 297 297 297 297 297 297 297 298 298 299
316 316 317 317 317 317 317 318 318 317 319 317 322 320 321 310 309 306 308 306 300 299 304 302 302 301 300 299 300 304 302 299 300 302 303 302 303 302 301 301 304 303 300 296 297 296 297 293 292 290 290 291 290 290 290 289 291 290 289 287 288 288 290 292 290 291 291 290 291 293 293 293 293 295 297 299 298 296 296 295 296 297 297 298 298 298 299 299
316 315 316 316 317 317 317 317 317 317 315 323 321 316 303 305 301 294 297 300 298 300 301 300 302 301 299 299 300 301 300 300 302 301 301 302 301 301 300 301 301 297 294 292 295 296 297 294 289 289 290 289 288 289 288 289 290 291 289 287 289 288 288 292 291 290 292 288 290 290 290 291 293 295 296 298 297 295 296 296 297 298 298 299 298 299 300 300
315 316 315 316 317 317 317 317 316 315 314 321 316 305 306 312 306 307 308 296 300 301 300 300 298 300 298 298 299 297 299 300 301 301 303 305 301 299 299 300 298 295 295 294 295 297 293 290 291 290 288 288 288 288 289 290 290 289 289 289 287 290 290 291 289 289 291 289 289 291 288 290 293 295 296 297 297 297 298 297 297 298 298 299 299 299 299 299
314 314 316 315 317 318 318 317 316 314 320 312 311 307 307 306 303 302 311 302 298 300 303 303 302 300 300 299 299 298 298 295 296 299 298 302 302 297 298 298 296 294 296 296 294 292 289 292 291 289 289 290 288 288 288 289 290 290 289 288 288 289 286 288 289 288 289 289 289 289 286 289 293 295 295 297 296 296 296 296 297 297 297 298 299 300 300 299
314 314 315 315 316 319 317 315 312 321 310 312 314 309 305 304 302 306 309 299 298 298 301 299 299 300 298 299 300 300 299 297 296 296 301 301 300 297 300 296 295 294 292 292 296 294 291 291 288 289 288 288 289 288 289 289 289 290 289 288 288 287 289 287 289 289 288 286 286 286 287 290 295 293 295 294 291 291 294 294 294 295 296 297 298 297 298 298
314 315 315 316 317 316 315 313 315 309 307 312 310 304 302 302 301 305 305 296 300 298 299 300 299 299 299 301 301 301 298 298 298 297 298 299 298 300 296 292 295 293 293 290 294 294 291 288 288 289 287 288 288 290 290 290 289 290 289 290 289 289 287 289 289 287 289 288 287 287 285 287 292 292 292 296 295 295 295 294 297 298 298 297 296 298 300 300
314 314 315 316 315 315 316 311 309 305 312 315 308 303 303 301 304 307 305 295 289 295 304 296 300 297 300 299 298 298 299 297 296 297 298 298 298 299 294 295 294 293 292 291 293 292 291 287 288 289 290 290 289 290 289 289 289 287 287 287 288 287 286 286 286 286 286 285 286 287 284 282 292 291 294 294 293 293 296 295 296 298 298 298 298 299 300 301
313 314 315 316 316 315 307 310 307 309 308 309 302 302 303 303 302 308 299 292 289 294 294 300 300 299 303 296 295 299 293 294 297 297 297 297 299 300 297 294 294 292 292 293 289 290 290 289 288 288 289 290 290 291 289 289 289 288 284 286 285 286 285 286 285 285 286 287 288 285 288 283 284 290 290 288 290 294 296 298 298 298 298 298 299 300 300 301
314 314 315 315 314 311 313 307 306 311 311 303 297 299 302 301 303 311 298 283 281 300 293 300 300 305 302 297 297 298 294 294 296 295 296 298 298 300 299 293 292 293 291 290 288 290 292 288 288 288 288 290 291 290 289 289 288 288 284 286 286 286 286 285 285 286 285 282 285 286 288 283 284 290 287 288 290 292 293 296 298 300 299 298 299 301 300 301
314 314 315 313 310 307 311 311 312 310 301 298 297 300 301 303 309 304 293 283 294 293 307 296 302 299 297 300 299 293 296 296 294 298 298 297 299 297 299 293 293 289 289 291 291 288 289 289 291 291 290 290 290 287 288 289 289 287 284 285 284 285 285 285 286 286 284 283 282 285 286 282 284 290 292 289 289 289 291 296 298 300 299 298 299 300 301 301
315 313 313 311 309 312 307 307 308 301 296 296 298 300 303 308 303 293 285 278 293 287 297 298 299 294 295 295 295 295 295 293 293 294 297 296 297 298 291 295 293 291 289 290 291 289 288 290 289 290 290 290 289 286 285 287 286 285 286 287 286 285 286 285 285 285 283 280 284 283 283 284 280 288 289 289 288 291 293 295 296 299 299 299 299 299 299 299
313 313 311 312 318 308 311 304 303 298 296 299 299 304 309 306 295 288 277 285 294 294 296 295 292 295 292 294 294 294 293 292 294 295 298 299 298 299 296 292 298 290 290 289 288 288 290 290 291 290 290 289 291 289 287 286 287 288 288 287 287 286 283 285 284 284 280 281 282 282 282 285 279 285 292 290 289 285 288 289 292 294 296 298 299 299 299 298
309 308 309 308 303 302 307 309 300 295 299 299 305 310 304 290 295 286 283 300 287 290 289 290 290 287 290 288 288 288 288 293 290 293 290 289 290 290 287 288 286 288 288 286 287 290 289 289 289 290 289 290 290 290 289 287 288 289 288 288 284 283 284 280 283 279 281 280 281 282 282 281 282 286 292 292 290 291 289 291 293 294 295 297 298 299 299 298
308 308 307 303 304 305 298 295 296 299 300 304 311 307 298 291 280 284 283 287 286 288 288 288 289 289 285 288 291 287 288 289 291 289 287 287 289 286 286 287 285 285 284 286 285 287 289 286 289 289 289 289 289 288 289 288 289 288 288 286 284 280 278 275 279 279 279 282 279 282 283 280 286 288 292 291 293 295 294 293 294 294 294 296 297 298 297 298
308 307 304 301 301 299 298 296 297 299 304 313 308 307 294 287 281 288 283 288 287 287 287 287 289 287 287 290 287 285 289 287 288 288 289 289 289 288 288 287 288 289 287 287 285 284 283 285 289 289 289 287 288 288 287 287 288 289 287 287 286 283 279 275 278 277 279 280 281 280 280 281 281 287 290 291 293 293 293 293 293 293 294 294 295 294 295 296
305 304 303 303 304 299 298 295 298 299 309 313 301 294 287 281 283 286 286 287 286 286 287 285 286 288 288 286 285 286 286 287 287 287 289 290 288 287 286 288 288 287 286 286 283 282 284 284 286 286 287 286 288 287 285 287 287 287 287 287 285 284 286 281 281 280 279 279 279 277 280 285 287 292 294 294 292 292 291 292 291 293 294 293 294 297 300 300
308 306 307 304 305 300 295 295 297 301 316 309 297 289 286 285 286 286 287 285 286 285 287 286 288 289 286 288 283 283 286 285 288 287 286 287 285 287 285 286 286 285 286 284 283 284 284 284 286 289 286 287 287 286 286 287 284 286 286 286 286 285 285 283 279 276 276 277 278 284 281 286 290 291 292 292 292 294 293 293 293 294 294 293 295 299 298 299
305 308 304 304 303 301 296 295 299 307 309 305 295 286 286 285 284 284 287 285 284 284 286 287 287 285 285 286 287 283 284 285 284 285 288 286 286 286 286 285 285 286 286 285 284 284 282 283 287 286 286 287 286 286 288 288 288 287 284 286 286 285 285 284 279 279 279 276 279 280 279 281 281 281 291 291 291 293 294 294 292 293 295 295 297 297 297 297
310 304 302 302 299 300 297 295 301 307 304 298 286 287 285 286 285 286 284 284 285 285 286 287 285 285 284 284 287 282 285 286 287 287 286 285 286 286 287 286 285 285 285 285 286 284 285 281 286 283 285 288 286 287 288 288 288 288 287 287 284 283 281 284 279 274 275 275 277 280 279 278 281 282 288 288 289 290 292 293 292 293 294 294 295 295 296 297
303 309 306 301 302 298 301 298 307 308 304 291 284 289 286 285 285 284 284 284 284 284 287 283 285 283 283 285 283 281 280 287 284 286 285 285 285 287 286 286 285 285 285 285 287 286 286 280 284 283 286 287 285 288 284 287 289 289 289 288 286 284 283 281 282 280 280 275 276 278 281 279 285 286 286 288 290 291 292 292 292 292 293 293 294 295 295 296
309 306 298 300 300 299 299 305 304 299 295 288 285 284 286 286 285 285 284 285 286 286 284 285 283 286 284 283 281 286 282 282 285 285 286 285 286 287 286 286 286 286 285 285 287 287 285 286 279 286 284 285 285 287 285 288 285 285 286 285 285 283 283 283 280 280 280 277 277 275 275 281 289 289 288 290 291 292 291 291 292 293 293 294 294 294 295 295
294 304 298 301 299 299 304 301 291 288 287 284 286 286 286 286 286 286 285 284 287 286 285 285 287 287 285 285 283 282 284 284 284 287 285 286 286 286 284 284 283 286 285 285 286 287 284 285 281 284 285 285 286 285 285 285 288 287 286 285 287 283 280 278 278 278 276 279 276 275 275 282 289 289 291 291 292 291 292 291 291 292 293 294 294 295 295 295
307 294 300 303 301 305 307 293 287 284 289 287 287 287 289 289 286 286 285 284 283 288 285 285 283 285 284 285 285 283 284 285 284 284 285 285 285 286 281 277 279 280 284 286 286 286 285 285 283 280 284 286 284 283 283 283 284 285 286 286 285 284 283 282 275 279 275 278 274 277 274 279 290 291 291 291 291 291 291 290 291 292 292 293 294 295 296 296
298 298 301 300 300 304 298 289 290 288 286 286 286 286 283 284 284 283 286 285 286 286 287 288 287 285 285 286 286 285 285 284 285 286 285 285 284 282 280 280 278 281 284 286 285 287 285 284 281 283 287 285 282 283 283 281 283 284 284 282 283 283 284 283 282 280 279 278 277 277 274 280 290 293 291 290 290 290 292 292 291 291 292 293 293 294 295 295
298 299 303 303 302 304 301 289 287 285 285 286 286 285 284 286 287 288 286 286 286 286 287 286 286 285 286 284 285 286 285 283 284 285 286 282 285 280 280 280 279 285 285 286 283 285 281 285 282 280 281 283 282 281 282 282 283 284 286 284 281 281 276 274 276 278 278 281 281 278 273 280 290 293 292 293 292 292 292 293 293 291 292 293 293 294 294 295
293 299 297 300 300 302 294 290 291 285 285 284 284 285 285 286 285 286 286 287 285 285 284 287 285 286 286 285 285 284 286 284 285 282 281 281 284 278 277 276 277 284 282 282 283 285 283 283 282 278 275 273 274 276 279 281 282 284 284 281 279 279 278 280 279 281 276 280 279 278 278 285 290 291 291 291 291 291 292 293 293 293 293 292 293 293 294 294
293 291 293 298 297 295 288 287 289 287 282 282 285 283 283 286 285 284 285 286 284 284 285 286 285 285 286 285 285 286 285 285 284 284 282 286 284 280 277 277 277 281 282 281 280 281 283 282 282 283 281 280 282 284 287 284 284 281 283 283 278 279 277 279 281 279 277 280 278 281 281 282 284 287 288 290 290 290 290 291 291 291 292 293 293 293 293 293
292 290 288 290 296 292 289 289 287 288 289 287 286 283 285 284 284 285 285 288 286 286 288 287 287 286 286 285 284 284 285 285 283 279 280 281 282 279 278 278 278 281 281 282 280 280 282 282 282 281 281 283 285 284 285 285 281 282 282 282 281 279 277 279 279 278 283 279 276 283 285 281 283 286 288 289 289 290 290 290 290 291 291 291 292 293 292 293
294 287 290 290 293 289 292 289 286 287 285 289 284 283 283 284 285 284 285 286 286 284 286 285 286 285 285 285 285 283 284 284 281 282 280 277 279 282 281 279 281 279 281 282 280 282 283 281 278 274 278 282 283 283 284 283 283 282 282 281 280 281 277 277 278 282 282 278 277 283 284 282 284 287 288 289 289 289 290 290 291 291 291 292 292 292 292 292
294 289 289 288 290 284 285 284 286 287 288 286 286 285 283 284 285 284 285 286 285 286 287 285 287 285 286 284 285 285 283 282 283 280 277 282 278 281 284 281 281 280 281 283 283 277 282 282 277 274 277 281 282 283 283 281 281 280 280 281 282 281 280 280 280 282 281 280 283 283 283 283 285 287 288 289 291 290 290 291 291 291 291 291 291 291 291 291
289 292 289 286 286 283 280 281 282 288 287 285 287 284 284 285 287 286 285 284 285 287 286 287 288 285 285 284 285 284 286 286 283 282 281 279 282 281 280 282 282 282 282 281 280 282 281 281 278 276 277 282 283 279 279 279 279 279 282 283 282 282 281 281 281 281 281 280 281 281 281 281 286 289 290 291 291 291 291 290 290 290 290 290 290 290 290 290
290 288 294 292 288 284 283 282 286 287 288 289 287 284 287 285 286 284 286 285 286 288 288 287 287 285 283 284 284 286 290 286 285 285 284 282 283 284 282 282 283 282 281 280 280 280 278 281 274 276 278 280 282 279 282 283 282 280 279 280 280 280 279 281 277 280 279 279 282 281 279 281 288 290 289 290 290 290 289 289 289 289 289 290 289 289 289 289
288 287 288 294 286 284 284 281 282 289 287 285 286 287 285 288 284 283 286 285 283 285 287 287 287 286 286 283 285 289 286 286 287 285 283 284 283 284 285 283 284 284 282 280 275 280 277 279 279 279 277 280 284 281 282 281 281 279 279 282 283 284 284 283 283 282 282 283 280 279 282 287 287 288 287 288 289 289 289 289 288 288 289 289 289 289 289 289
Wind_Speed
6 6 6 7 7 7 7 8 8 8 9 9 9 9 9 9 8 9 8 9 8 8 7 5 6 6 6 6 5 4 5 3 12 11 15 4 6 14 12 10 10 8 4 2 2 4 1 4 4 4 1 4 4 1 1 3 3 3 1 4 4 3 5 9 8 9 4 10 11 11 10 10 9 5 4 2 6 7 6 6 7 7 9 8 1 1 3 5
6 7 7 7 7 8 8 8 8 8 9 9 9 9 9 8 9 9 9 9 8 8 7 6 6 6 5 5 5 4 2 3 10 14 9 3 9 10 10 9 6 4 4 3 4 3 2 2 3 3 2 4 3 3 3 3 5 3 2 2 4 3 3 2 3 4 4 9 10 10 8 8 6 9 5 7 9 9 9 11 9 10 11 9 5 5 5 6
6 7 7 7 7 8 8 8 8 9 9 9 9 9 9 8 8 9 10 9 8 8 7 6 6 5 5 3 3 1 3 4 8 14 8 12 16 13 11 8 2 5 0 2 0 1 2 1 1 2 5 4 7 3 4 5 4 3 2 5 4 3 4 2 2 4 2 4 11 10 6 5 2 5 5 7 8 6 12 11 11 12 13 13 10 8 8 8
6 7 7 7 7 8 8 8 9 9 9 9 10 9 9 9 9 9 9 8 8 8 7 4 4 4 3 2 3 4 1 3 9 8 9 15 17 14 11 8 5 3 3 8 2 4 3 5 8 5 3 7 3 2 4 6 2 2 1 4 4 4 6 3 1 1 1 5 9 9 4 6 4 4 6 6 7 12 13 14 13 14 13 12 10 9 8 9
6 6 7 7 8 8 8 9 9 9 10 10 9 9 9 9 9 8 8 8 7 8 8 3 1 2 2 5 4 5 1 1 5 6 10 17 15 14 9 6 6 2 2 6 4 4 4 5 3 6 5 3 3 3 5 5 4 6 5 3 5 2 3 4 1 3 1 1 8 7 9 7 4 2 8 8 11 9 11 15 14 11 9 10 8 9 8 10
6 7 7 8 8 8 8 9 9 9 10 9 9 9 9 8 8 8 7 7 7 7 6 5 4 2 4 5 3 2 3 2 5 11 15 15 14 12 7 6 2 2 3 3 2 2 2 3 1 3 3 4 7 5 4 3 4 7 1 2 3 4 3 2 2 1 4 7 9 8 5 3 7 5 7 9 15 13 2 1 6 11 12 3 3 6 9 10
6 7 7 8 8 8 8 9 9 9 9 9 9 9 8 7 6 7 7 6 6 6 4 3 2 2 4 2 2 10 9 5 5 13 15 14 13 9 6 5 2 1 1 1 1 0 3 6 7 4 5 7 6 8 4 5 1 5 6 1 4 1 4 1 2 2 1 6 7 2 3 5 4 11 2 9 17 17 9 1 1 2 2 0 6 7 10 12
6 7 7 7 8 8 8 8 9 9 9 9 8 8 7 7 7 7 7 7 6 5 5 2 2 2 3 0 1 9 10 8 16 12 14 11 10 10 5 3 5 1 8 5 1 5 2 5 10 5 6 3 0 4 3 6 12 7 6 0 3 3 3 1 3 3 2 1 2 1 4 8 6 5 3 14 17 17 17 12 8 4 2 3 7 10 11 12
6 6 6 6 7 7 8 8 8 8 8 8 8 7 7 7 7 7 7 7 6 5 4 3 4 4 3 1 1 8 9 9 9 13 14 12 10 8 2 1 8 6 5 4 6 2 2 1 4 3 5 7 1 5 5 1 6 6 5 3 4 5 4 3 5 3 2 2 1 4 9 5 2 4 12 21 19 15 14 11 10 9 10 11 11 12 11 12
4 5 5 5 5 6 7 7 7 7 7 7 6 6 6 6 5 5 5 5 6 5 1 4 7 6 2 1 2 10 4 7 6 11 13 9 9 2 12 6 3 4 3 5 3 4 2 5 1 10 17 10 2 4 5 7 4 4 7 7 6 3 3 2 2 3 1 1 1 6 8 6 3 2 10 9 10 1 6 11 11 10 14 16 13 12 12 12
3 4 4 4 4 5 5 6 6 6 6 6 7 6 6 4 4 4 3 2 6 7 8 6 6 4 4 0 11 9 3 5 7 8 11 9 10 13 10 6 3 6 13 11 10 5 8 12 10 6 3 5 7 9 8 4 7 7 8 9 8 4 4 2 2 2 2 3 2 4 10 9 4 3 15 15 5 2 3 6 8 10 13 13 15 13 12 11
4 4 4 4 4 4 5 5 5 5 6 6 7 6 5 4 2 2 2 2 4 6 4 6 5 4 10 18 13 5 2 3 5 6 6 11 10 8 8 7 7 4 6 11 8 7 5 5 2 2 4 5 7 7 7 2 1 3 3 4 3 1 2 2 2 1 1 2 1 1 9 14 10 10 20 18 3 2 6 9 10 10 11 12 13 11 10 12
4 4 4 4 3 3 4 5 5 5 6 6 6 5 3 3 2 3 3 3 4 4 4 3 1 2 3 15 4 3 2 3 5 7 9 5 6 9 10 12 14 12 8 10 4 2 1 2 6 16 5 4 4 1 6 2 3 2 6 2 3 2 4 4 1 1 3 1 1 1 5 2 11 19 16 2 2 0 6 10 10 9 10 10 11 10 12 12
4 4 5 5 4 4 4 5 5 5 5 5 4 3 2 2 5 4 2 3 1 3 5 4 1 5 9 6 1 1 4 2 5 8 12 10 8 10 12 11 10 10 9 16 10 6 8 7 19 14 5 5 6 3 8 3 2 2 1 2 1 2 1 4 3 3 5 3 2 4 4 8 5 9 12 4 3 6 11 13 12 10 9 9 9 10 12 14
4 5 6 6 6 5 5 4 4 4 4 4 2 1 3 6 4 5 2 1 6 2 2 2 2 1 9 3 4 1 1 3 6 6 6 10 6 8 9 6 9 8 8 9 6 3 2 4 10 8 7 3 7 5 5 2 3 2 2 2 2 2 1 3 3 5 6 3 3 4 6 11 11 11 2 1 2 4 10 11 11 9 8 9 9 11 12 13
4 4 5 6 6 5 4 3 3 4 4 2 2 4 4 4 4 4 6 6 3 2 1 5 8 8 12 6 3 2 1 5 8 6 2 7 7 3 2 3 1 6 4 5 1 0 5 11 13 3 5 3 3 4 5 4 2 1 2 1 2 1 2 4 4 1 3 0 4 7 7 9 11 2 3 2 5 4 6 9 10 12 13 12 11 11 11 12
4 4 4 4 5 5 5 4 4 4 3 5 8 7 4 4 1 5 9 8 6 1 3 3 1 2 4 1 2 2 4 2 3 3 4 3 5 2 2 2 4 3 1 2 7 1 10 7 2 2 5 4 1 2 2 1 1 2 0 2 1 2 1 2 3 2 1 5 6 8 8 15 14 11 8 6 5 5 10 15 16 14 11 11 10 11 12 12
4 4 4 5 5 5 5 5 4 3 2 1 5 7 13 9 8 3 5 5 3 7 5 4 1 0 8 1 2 4 2 4 5 6 3 2 4 6 7 6 2 3 3 0 8 9 6 3 3 4 2 3 2 1 2 1 0 1 2 2 2 3 6 7 5 3 3 4 9 7 12 19 20 18 16 15 10 9 14 14 14 13 12 10 9 10 12 11
3 3 4 4 4 4 4 4 3 2 3 1 2 3 1 3 1 11 8 5 1 0 2 7 4 3 5 2 2 5 2 1 3 4 6 8 4 1 4 2 2 2 1 2 4 5 5 4 1 2 1 2 3 3 2 1 2 1 2 1 3 4 2 2 1 2 2 6 7 11 11 14 17 17 16 12 7 9 13 12 12 13 12 11 10 10 9 10
2 2 3 3 3 3 3 3 2 4 1 2 3 0 0 2 4 4 7 10 8 3 2 1 1 3 4 2 2 4 1 1 1 5 3 2 5 3 5 5 3 8 5 2 4 4 5 2 1 1 1 2 2 2 4 3 2 3 2 1 3 5 9 3 2 1 1 4 12 13 14 17 18 19 18 16 6 9 13 15 13 11 10 9 8 9 9 10
2 2 3 2 2 2 2 2 4 4 5 1 0 1 1 4 4 3 2 4 1 1 3 3 4 6 5 2 3 5 2 1 2 8 8 4 1 3 5 5 3 5 4 2 2 2 3 2 2 1 3 3 2 1 1 2 2 1 1 1 3 4 7 1 1 2 1 1 4 3 8 15 18 18 19 17 10 15 16 14 13 12 9 7 8 9 10 10
3 3 2 1 1 1 2 3 4 4 3 1 4 2 2 2 1 3 3 6 1 0 2 1 3 4 1 1 1 1 4 2 9 12 5 9 5 2 5 4 4 5 3 1 2 1 2 2 2 2 3 4 3 2 3 4 1 1 2 1 3 2 6 7 1 1 2 3 10 4 10 15 18 18 19 18 16 13 12 11 11 8 8 7 7 9 10 8
5 3 2 2 0 2 3 2 3 2 1 2 3 3 4 2 2 1 1 7 5 2 5 5 4 5 3 3 1 3 4 8 3 10 11 9 2 7 1 2 6 1 1 4 1 1 2 2 4 4 3 4 3 1 3 2 2 3 1 2 3 3 2 2 3 2 4 4 6 9 15 18 17 18 18 15 13 12 6 6 10 9 10 11 10 6 6 9
4 5 3 1 1 3 4 3 3 2 4 2 5 3 3 2 1 1 2 2 5 2 3 1 1 1 4 5 5 7 4 2 1 11 10 6 4 3 1 4 4 3 5 6 3 1 2 4 2 4 2 1 1 2 4 3 2 3 4 3 4 3 3 3 3 6 3 2 2 8 10 14 7 6 3 3 2 4 6 5 8 9 11 11 9 9 10 12
4 4 3 2 4 4 5 5 3 2 1 3 3 1 1 1 0 3 1 1 1 3 2 1 2 3 3 2 3 1 2 3 4 3 4 6 1 1 3 2 2 2 0 3 2 5 1 3 1 3 1 2 4 3 5 4 3 0 6 7 7 5 7 7 6 8 5 3 4 5 8 5 2 3 5 3 2 4 2 4 8 8 8 8 10 12 10 9
5 3 3 3 4 6 6 2 1 2 2 3 2 4 2 1 1 1 1 2 2 4 1 4 3 3 4 2 7 3 3 3 1 2 2 4 3 1 4 2 3 2 2 2 2 2 2 2 2 1 2 2 4 4 0 4 1 2 1 2 3 3 4 5 6 3 3 4 2 2 4 12 7 11 9 3 6 11 5 6 10 8 8 7 8 8 7 8
4 2 3 3 5 7 5 3 2 3 2 3 2 1 2 1 1 2 1 0 2 2 4 0 1 3 1 2 2 2 1 1 1 1 2 3 3 3 1 2 2 3 2 1 1 3 4 2 2 1 2 5 5 4 4 4 0 1 2 1 1 2 3 4 2 2 5 4 4 3 5 7 12 8 3 4 7 8 7 6 7 7 9 8 7 7 7 7
1 2 4 4 4 3 1 7 5 5 2 1 1 1 2 1 1 1 1 2 2 2 3 3 2 2 4 4 4 3 2 7 1 1 1 3 1 1 2 2 1 2 2 1 4 2 3 3 4 3 4 4 4 3 3 2 2 3 1 2 2 3 4 2 2 2 1 3 4 4 4 4 6 5 3 1 8 8 7 7 6 5 5 6 6 6 6 7
3 5 8 8 9 7 6 3 4 4 1 1 1 1 2 2 1 1 1 1 1 2 4 1 1 1 8 3 4 3 2 5 3 5 4 2 3 3 1 1 3 5 2 1 2 1 1 1 1 3 3 2 3 2 0 3 5 3 1 2 2 2 1 2 2 2 1 2 5 4 0 4 12 7 4 3 2 6 4 6 5 5 5 5 6 7 8 6
6 8 11 12 8 4 3 2 5 1 0 0 1 2 2 2 2 1 0 1 1 1 3 4 3 7 4 3 2 8 6 4 1 7 4 1 5 5 6 1 3 3 1 2 3 2 2 1 2 2 1 3 2 3 1 4 2 1 3 5 3 3 2 2 1 0 2 3 1 4 1 3 5 9 2 3 1 1 1 4 5 6 6 5 5 6 7 7
8 7 5 3 2 2 3 3 1 1 0 1 1 2 2 4 0 2 2 0 3 3 1 4 2 3 7 6 2 5 1 3 7 7 3 4 3 4 2 2 2 2 0 1 2 1 1 2 2 1 1 1 0 2 3 1 1 2 3 3 6 4 4 2 1 2 2 3 4 1 1 2 4 9 3 2 1 1 1 6 11 11 11 10 9 6 6 6
13 15 11 8 1 2 0 3 3 1 0 1 2 3 2 3 1 4 3 4 1 2 3 3 2 1 4 1 1 6 5 4 4 6 5 4 5 7 8 3 5 2 0 3 2 1 3 3 2 2 0 2 1 4 3 2 2 2 4 4 4 3 2 2 2 3 3 4 3 2 2 5 13 13 11 14 11 7 5 6 9 10 11 10 9 10 7 7
15 15 18 9 0 5 3 1 1 1 1 2 2 2 0 2 2 1 2 3 1 3 1 1 4 4 4 3 4 4 2 4 5 3 1 0 1 4 2 3 2 1 4 3 5 6 1 3 1 2 2 2 2 4 2 2 3 3 4 3 4 5 2 3 3 2 4 2 2 2 2 6 11 6 9 11 13 7 4 7 10 10 10 9 9 9 8 8
7 9 12 4 9 5 2 1 0 2 1 0 0 1 2 4 0 3 1 2 2 3 2 2 4 2 3 2 3 6 1 2 5 4 2 1 1 2 2 2 4 3 1 2 4 5 4 2 3 2 0 2 2 2 3 4 5 3 2 3 2 2 3 4 3 4 7 7 1 0 1 3 3 2 2 6 9 10 9 7 7 8 8 9 8 8 9 9
12 13 9 3 4 6 5 1 1 2 1 2 6 1 3 1 1 1 0 1 1 3 2 1 3 2 1 2 4 0 1 1 3 3 4 3 3 2 4 4 5 3 1 2 2 1 1 6 2 2 2 2 1 2 1 3 4 2 1 1 3 1 2 6 2 3 4 6 5 4 4 1 5 9 15 3 4 6 2 4 3 7 5 5 5 5 6 6
1 3 3 5 4 4 4 2 2 2 0 3 4 5 3 0 1 2 1 0 1 2 4 1 2 1 1 1 2 2 0 1 2 1 1 4 1 2 1 2 4 6 4 3 1 2 2 3 2 1 1 1 2 1 1 2 3 2 2 2 3 2 2 1 2 2 1 2 7 2 5 5 6 12 9 3 3 3 1 3 3 5 3 3 5 5 7 8
5 2 7 4 5 5 3 2 2 1 4 4 3 2 0 0 2 2 4 3 2 3 3 1 2 4 3 3 2 4 2 1 1 2 3 1 2 2 2 2 2 1 3 2 0 1 1 10 1 1 2 2 2 2 1 2 2 2 3 2 1 3 2 1 5 1 2 4 6 2 5 8 4 6 4 5 3 2 4 6 7 7 4 4 8 11 10 11
3 4 5 6 7 5 1 1 2 5 5 8 5 5 1 1 2 2 1 2 1 1 2 3 2 3 1 2 4 5 6 2 6 2 3 5 2 1 1 2 1 1 1 2 1 0 1 6 1 1 2 2 3 2 5 2 3 4 3 1 2 2 2 2 0 4 3 6 6 4 3 7 7 8 2 1 4 11 13 8 5 8 9 12 14 16 15 13
3 3 3 5 4 3 2 3 3 4 4 8 1 3 3 3 2 1 1 0 2 3 1 2 1 3 1 1 2 1 3 5 4 3 3 3 3 1 1 3 2 4 2 3 1 1 3 2 3 4 4 1 2 2 3 3 3 1 1 2 1 2 5 3 1 2 0 8 4 5 5 12 3 3 1 7 12 11 12 12 8 6 8 10 12 14 15 14
1 2 3 2 6 2 4 1 6 8 8 5 1 2 1 2 1 2 3 3 1 0 1 0 1 1 1 1 0 1 0 1 0 0 1 1 3 1 2 2 1 2 0 2 2 2 1 1 5 2 4 3 4 5 3 2 2 2 4 2 2 1 2 2 2 3 4 5 4 4 8 9 6 4 0 12 11 11 10 10 12 12 13 12 12 13 14 15
1 4 0 3 7 1 3 10 13 7 5 1 3 4 0 1 3 2 1 3 1 2 1 3 2 1 2 1 1 2 0 1 2 0 0 1 1 3 3 4 4 3 1 1 2 1 1 3 5 7 8 4 6 4 2 1 2 4 3 5 3 3 2 2 7 5 2 3 4 2 10 10 12 5 4 7 9 8 7 8 14 17 17 16 14 15 15 14
2 4 4 7 8 0 3 11 4 1 3 2 2 1 2 1 1 2 2 1 3 1 2 2 2 2 1 1 2 1 1 1 0 0 2 1 2 2 1 2 2 3 2 3 2 2 2 3 3 7 6 11 4 2 3 5 4 4 4 3 2 2 2 3 7 1 1 2 4 1 4 14 2 2 2 5 3 3 6 7 12 15 16 16 15 16 16 14
5 4 2 7 7 4 11 6 1 3 3 1 1 2 1 2 2 1 1 1 1 0 0 2 2 1 1 1 2 1 2 1 2 1 0 2 2 1 1 1 1 2 3 1 1 2 0 2 3 9 10 3 4 4 3 2 2 4 3 1 1 2 1 5 4 3 5 1 3 2 5 11 14 1 1 2 2 4 4 4 9 13 14 15 16 17 18 17
3 4 2 1 5 2 6 4 3 2 2 2 2 3 1 2 2 2 1 2 2 1 2 1 1 1 1 1 1 2 1 1 2 1 1 2 2 3 2 1 2 1 2 3 1 3 2 2 0 8 8 3 3 2 2 2 1 3 3 2 2 3 4 2 3 1 3 10 11 7 12 10 13 2 4 7 15 19 18 14 5 10 14 16 18 17 15 16
4 0 3 5 10 7 6 1 4 5 1 2 1 5 3 1 2 0 1 2 1 0 0 2 1 2 1 1 1 0 1 2 2 2 0 2 1 4 3 2 3 1 3 4 3 3 2 3 2 6 9 9 12 13 13 9 3 5 3 1 2 3 3 2 5 2 5 1 1 4 10 14 17 18 22 20 18 19 21 18 15 11 14 16 18 19 19 17
3 4 6 6 8 7 7 1 4 5 5 2 4 0 1 2 1 1 2 1 0 0 2 1 1 0 0 1 0 1 1 1 1 1 1 1 0 1 2 3 3 2 3 1 3 3 0 1 3 4 5 9 9 10 6 3 11 11 14 4 3 3 0 0 2 4 11 3 4 13 14 17 21 22 19 19 19 22 23 22 20 20 19 18 17 16 15 15
3 4 1 1 3 9 4 4 3 2 2 2 2 1 5 1 2 1 2 1 1 1 1 2 2 2 3 2 3 2 1 3 2 1 4 4 1 2 2 3 1 2 4 3 1 0 1 2 2 6 8 11 12 15 16 11 14 19 14 12 4 5 6 7 8 11 2 2 11 13 9 4 14 19 19 20 22 22 22 21 21 21 21 20 19 17 19 19
4 2 1 2 2 2 3 5 6 5 4 3 2 0 2 2 4 1 1 2 2 1 1 2 2 3 2 1 2 1 3 4 0 2 2 1 4 0 1 2 2 3 3 1 1 0 0 2 1 2 10 7 12 17 19 16 14 14 15 14 14 3 8 10 14 17 7 8 12 17 19 17 19 18 19 19 20 20 18 19 20 19 17 19 22 24 23 22
4 3 2 4 2 0 2 1 2 4 9 5 2 2 3 4 5 1 1 3 1 2 3 2 6 4 2 1 1 1 1 3 3 2 2 2 1 3 1 1 2 1 1 0 0 1 1 3 1 2 11 15 11 14 11 11 9 10 12 15 14 8 13 14 18 15 12 14 19 19 20 21 20 18 18 19 18 17 16 13 12 17 22 22 21 21 22 22
2 2 2 6 6 3 1 1 1 3 7 4 3 5 2 3 3 2 1 2 2 3 1 2 4 2 2 1 2 1 1 3 3 4 1 3 4 2 1 0 0 1 1 0 1 1 1 2 4 2 4 13 5 1 2 5 5 10 17 10 9 11 13 13 12 13 8 13 19 20 19 18 16 13 11 13 15 15 15 17 19 19 20 20 19 18 20 22
2 1 4 7 5 3 0 2 3 4 3 6 4 2 0 3 2 1 2 2 1 3 3 4 5 3 1 2 3 6 3 4 5 8 1 1 3 1 1 0 2 1 1 1 1 1 0 2 2 2 5 9 2 6 10 10 9 10 14 13 8 5 6 3 6 5 6 8 8 7 8 8 8 13 17 18 19 20 19 16 15 17 20 19 17 17 18 20
2 0 1 4 6 4 3 1 1 2 5 2 2 3 2 4 1 0 1 2 2 3 2 2 2 2 2 2 4 2 3 3 5 4 2 3 3 2 2 2 1 2 2 2 1 1 0 0 2 1 6 7 6 3 15 17 10 2 0 3 8 11 7 8 9 7 11 6 5 7 8 10 15 13 16 19 20 21 18 15 16 17 18 16 15 16 17 18
Wind_Direction
283 283 285 287 287 290 293 295 295 296 297 299 301 306 304 303 301 297 292 293 290 300 302 313 295 289 291 298 310 316 301 334 54 47 57 82 327 303 301 300 305 306 187 242 216 250 131 20 22 336 102 45 356 42 345 48 359 251 63 116 133 101 188 165 178 179 30 154 166 171 187 195 195 171 182 178 232 237 253 238 235 237 244 246 75 102 87 138
285 284 285 288 289 288 289 291 290 292 297 298 298 298 302 298 296 298 298 296 305 309 314 317 310 290 278 287 304 319 256 282 56 54 69 24 333 332 322 321 326 341 221 219 221 212 225 76 45 22 64 63 315 53 250 66 332 32 119 316 116 169 57 174 135 130 163 160 159 171 181 210 195 181 165 214 214 217 237 237 227 235 234 213 202 193 192 177
288 289 287 288 288 288 287 288 291 293 295 297 296 297 299 299 298 303 303 308 317 321 324 326 302 283 276 274 265 20 277 290 42 20 5 8 354 343 334 322 299 8 260 262 82 60 310 128 235 59 33 106 12 51 22 31 323 43 289 99 91 40 70 92 144 159 334 149 154 163 176 223 145 201 119 225 226 203 232 224 215 229 228 217 207 192 201 199
291 291 290 289 289 289 288 290 294 296 295 295 295 296 298 304 299 305 307 315 322 322 331 306 275 275 272 213 189 230 227 280 48 325 351 360 349 339 337 325 292 184 95 57 115 93 103 106 60 58 97 62 53 332 36 2 299 20 314 77 118 146 133 152 240 119 328 227 159 167 132 214 201 196 199 220 238 233 234 232 227 218 222 227 200 189 187 201
291 293 294 290 289 292 294 294 295 296 294 293 295 298 302 300 303 302 311 319 316 326 322 342 65 183 157 157 159 235 184 239 41 326 358 350 341 338 331 347 6 163 109 134 127 84 79 50 79 46 43 90 31 96 37 16 28 75 52 14 89 139 113 99 150 43 189 257 153 147 172 204 100 204 221 225 223 232 220 225 224 235 229 232 207 186 187 202
292 290 290 292 292 293 294 294 293 293 294 295 301 304 303 301 298 307 315 314 311 306 311 336 348 133 171 166 157 207 255 68 340 333 350 341 332 330 339 315 343 32 160 73 48 47 241 36 358 38 53 45 8 69 19 344 302 98 32 55 2 322 106 94 159 120 177 161 165 176 189 66 196 222 218 230 233 242 15 314 226 225 234 218 24 178 195 209
288 288 288 291 291 290 293 295 296 297 301 304 302 303 298 301 309 314 305 303 300 293 291 306 286 243 153 210 71 81 71 109 321 337 347 332 323 321 297 345 291 233 238 246 35 169 69 97 70 87 101 95 55 74 29 47 225 87 112 62 46 334 91 24 94 132 220 191 176 104 34 230 191 241 136 238 241 251 258 163 261 305 343 342 227 210 215 214
285 286 285 285 290 294 298 298 300 303 304 303 300 302 310 326 320 312 309 300 293 291 280 247 219 177 258 150 234 58 50 356 335 339 335 328 324 318 280 286 29 12 60 51 349 115 92 76 119 162 42 71 14 88 302 77 38 74 98 43 100 52 56 75 119 143 161 106 39 307 221 233 226 263 354 253 246 245 248 242 226 216 230 223 231 229 226 234
289 288 289 290 295 296 297 299 302 303 300 298 303 308 316 322 324 318 308 299 298 304 294 220 135 164 233 154 322 71 23 344 328 327 343 341 331 322 97 228 1 96 98 50 12 104 252 52 122 253 161 116 240 104 355 307 75 32 77 89 105 88 99 112 119 110 125 128 166 232 241 241 227 322 263 256 258 247 245 241 233 225 238 240 234 234 231 233
290 289 288 290 292 296 297 299 300 297 296 302 307 308 307 307 304 296 291 295 304 331 8 137 168 172 110 225 128 71 22 317 338 344 344 338 324 324 41 34 355 65 68 9 47 9 302 171 122 110 112 81 34 46 295 26 96 103 94 82 86 77 109 73 144 130 81 200 160 246 262 253 119 233 276 248 250 292 236 244 239 227 237 240 237 234 233 235
299 295 297 297 297 297 294 285 290 291 304 312 309 300 286 286 274 262 262 325 357 7 43 140 193 208 89 272 76 80 339 336 359 342 343 332 18 38 11 357 324 98 96 59 53 42 97 121 126 140 44 107 96 42 64 94 120 104 111 99 67 71 64 109 150 117 209 186 188 269 273 269 176 200 247 258 118 178 238 243 234 227 238 242 240 237 235 232
326 320 311 307 300 291 295 297 303 311 303 300 296 287 275 268 288 289 8 51 18 26 8 34 35 69 77 67 63 63 291 340 311 334 348 7 49 36 33 38 44 21 96 97 64 25 43 121 158 352 126 216 81 126 70 182 22 98 285 115 35 103 182 174 198 97 313 219 115 42 278 250 196 228 239 244 223 224 257 265 258 246 241 242 244 239 236 235
342 328 312 303 300 304 312 316 306 301 298 290 279 283 307 324 360 33 33 19 350 355 24 59 66 82 337 66 27 260 315 293 336 330 1 3 73 61 52 48 55 48 48 100 80 50 325 239 119 83 34 87 102 30 129 161 57 204 57 50 150 212 229 162 100 68 238 173 78 191 290 255 199 222 238 164 137 274 264 259 253 247 246 246 241 239 243 243
338 331 317 314 336 341 326 308 303 291 285 279 288 307 323 9 40 32 58 87 306 339 18 24 20 48 87 86 79 274 301 330 277 4 359 326 59 56 57 49 56 62 63 85 85 72 82 85 87 100 63 59 111 198 125 80 312 139 333 279 326 249 177 138 208 110 239 115 176 232 268 284 261 207 230 220 223 252 262 261 256 248 248 248 246 244 246 247
342 333 330 336 344 337 311 298 294 301 295 300 318 124 91 69 54 40 65 142 5 312 206 247 5 134 65 77 278 297 248 231 16 11 8 0 349 64 29 32 51 54 61 61 88 55 27 254 76 60 69 346 117 157 79 97 60 42 218 186 161 260 114 153 145 203 233 128 219 235 268 261 283 292 120 181 204 218 249 259 265 265 262 259 257 253 251 252
337 335 334 333 321 311 300 306 327 327 334 34 97 92 87 95 63 50 66 70 8 60 244 56 359 87 104 92 72 208 51 24 360 345 36 3 7 34 294 301 212 62 66 64 93 192 41 59 60 57 118 190 119 110 117 129 140 60 297 288 229 267 304 284 154 217 278 335 188 227 274 314 289 11 47 130 154 190 257 271 272 271 268 267 262 258 257 260
337 331 334 324 319 326 327 338 340 344 30 92 98 87 87 166 97 66 59 35 13 295 61 70 173 288 55 154 251 20 359 337 319 331 352 28 10 326 269 24 26 352 49 121 35 62 10 52 262 146 29 72 350 328 175 192 188 191 148 276 71 246 310 256 115 180 211 219 236 209 238 253 263 265 238 186 191 253 277 276 275 271 266 263 263 260 259 257
328 337 338 331 334 330 337 334 325 354 41 124 90 82 86 79 123 74 28 22 343 65 79 158 93 224 84 57 32 6 10 287 347 326 266 42 13 18 33 35 331 288 29 255 38 32 336 71 304 97 129 61 30 229 257 283 260 218 194 236 209 219 228 282 294 100 221 187 247 233 241 264 269 270 267 260 237 249 264 268 272 273 270 267 261 260 257 257
326 337 338 336 335 333 326 331 335 72 62 54 266 253 37 266 353 67 40 329 208 218 96 348 352 107 95 29 266 279 265 309 286 331 347 2 347 94 69 133 15 351 42 9 23 4 0 96 190 132 80 27 38 355 337 37 20 93 266 312 307 288 226 246 230 87 261 247 243 235 244 262 271 273 274 268 216 236 256 263 263 264 263 262 255 254 254 251
332 315 335 340 329 331 343 339 5 86 2 354 325 353 30 74 20 45 359 31 50 26 21 184 31 96 68 34 341 331 312 251 172 12 352 13 303 310 44 356 48 70 32 24 342 49 297 103 71 64 42 358 324 301 319 324 336 97 128 233 268 275 278 253 229 73 203 284 253 249 250 260 267 271 274 274 217 239 252 253 252 251 253 251 250 246 251 251
309 328 321 325 335 350 7 35 76 88 101 134 288 60 175 140 74 69 315 69 257 345 19 41 23 43 69 323 345 323 206 119 118 34 20 278 268 270 360 332 4 71 34 309 305 340 260 92 53 300 302 300 326 237 202 187 287 301 261 256 280 213 274 29 131 106 243 285 284 154 272 264 262 266 269 271 249 249 249 245 245 248 240 245 249 255 251 255
314 315 304 299 308 46 48 77 78 87 98 100 55 82 85 222 354 60 153 77 7 186 226 327 244 69 288 224 19 305 252 60 41 14 34 349 353 283 2 52 36 78 358 286 215 184 53 61 65 103 94 107 96 158 242 277 208 116 281 310 287 262 288 264 37 159 162 191 271 309 289 275 273 269 264 261 258 251 247 235 248 256 257 246 242 246 258 262
310 294 280 257 230 98 108 127 85 179 137 341 39 63 70 63 329 234 1 128 84 287 39 16 36 19 42 185 128 232 45 43 343 15 357 338 43 46 296 56 54 26 102 3 149 137 103 99 82 116 147 109 95 186 239 206 232 238 239 258 292 38 338 309 114 27 188 235 303 327 308 286 272 264 259 260 257 258 269 258 250 240 248 249 249 256 263 267
293 289 262 236 179 149 152 128 174 81 36 81 94 67 106 82 100 248 39 67 111 19 13 79 97 80 32 2 352 356 47 56 287 347 4 3 53 246 102 55 95 49 33 1 27 15 57 61 56 134 103 278 247 194 215 232 251 197 236 267 278 283 263 237 328 313 235 236 283 279 264 271 253 275 250 148 209 259 261 244 245 241 238 254 278 279 249 252
281 269 261 221 166 163 153 166 67 61 153 67 61 130 81 67 221 51 117 136 81 100 188 149 197 41 3 217 349 239 73 134 31 257 333 350 77 238 73 154 286 72 29 317 39 92 82 57 145 128 166 222 235 217 218 250 263 256 207 230 278 301 284 281 304 331 284 248 143 337 322 283 122 248 272 298 316 267 148 290 261 241 223 224 246 249 252 237
283 270 253 194 182 176 195 140 126 164 171 149 150 134 98 164 330 281 121 81 83 325 192 24 203 60 198 23 2 35 256 38 298 359 323 20 271 12 163 93 341 126 197 43 25 11 46 86 248 234 227 229 234 269 111 236 310 278 74 324 285 299 297 290 301 299 278 288 95 278 315 291 290 281 278 314 327 298 278 242 259 248 238 219 234 245 248 244
294 244 216 204 180 175 128 215 78 151 144 196 151 143 118 200 293 143 260 339 68 6 357 326 239 62 195 8 335 241 202 91 71 19 6 34 349 4 316 36 136 60 37 113 235 163 139 120 177 220 248 251 260 256 174 216 283 275 38 74 77 256 266 279 277 235 275 327 271 171 233 275 302 305 60 12 300 286 286 257 231 244 248 243 238 245 252 255
294 165 182 166 155 360 291 110 138 176 213 45 61 96 131 137 252 296 295 72 13 341 1 336 23 312 34 319 333 47 73 298 258 106 98 336 279 161 11 105 26 105 154 216 306 66 178 170 198 182 218 249 274 7 126 213 265 351 351 324 315 301 287 260 246 270 310 339 290 143 152 260 247 254 144 9 307 306 302 293 286 256 245 262 273 270 261 262
115 117 131 114 85 88 67 96 147 155 77 217 151 170 83 179 179 102 226 102 24 58 164 208 112 45 348 256 46 47 306 3 23 1 332 258 40 263 145 93 118 107 44 280 283 124 290 337 210 239 232 275 51 17 10 160 258 81 124 103 97 133 99 219 253 266 259 284 279 123 203 279 285 291 279 118 241 279 269 297 306 317 318 307 299 294 288 280
104 107 115 124 111 86 36 52 45 16 32 141 187 149 151 186 259 219 3 22 31 319 48 297 347 323 332 309 349 5 30 5 169 301 8 50 344 49 62 6 144 123 140 31 259 337 342 186 152 229 287 26 92 45 11 355 28 114 221 263 231 214 197 169 265 280 261 238 242 80 336 293 302 299 309 315 4 325 341 305 293 297 292 276 252 275 293 298
85 87 102 35 104 138 75 47 129 99 296 187 194 213 193 43 115 89 79 267 30 303 229 40 360 344 16 25 357 12 164 339 349 355 15 5 15 52 103 197 198 157 160 201 209 272 196 127 203 89 24 125 118 131 85 75 76 307 292 305 280 207 176 195 195 211 256 266 106 337 340 287 257 285 203 220 333 214 249 286 292 300 308 311 312 302 292 286
81 67 54 65 41 360 133 147 95 65 188 198 217 97 110 245 41 50 125 10 263 7 22 330 86 15 13 305 107 348 351 336 29 20 24 23 25 23 6 29 348 338 118 27 344 277 216 166 80 100 246 305 150 279 154 142 175 248 266 246 302 304 318 257 180 260 198 288 123 98 270 269 225 238 290 297 284 279 210 241 267 284 291 299 300 305 299 287
89 93 70 44 189 57 52 12 348 173 256 238 88 52 53 92 60 261 264 320 28 338 72 171 307 354 322 276 45 353 261 24 343 84 297 113 130 74 18 29 352 333 348 30 302 342 21 84 1 123 161 30 286 294 309 235 156 253 276 327 311 320 335 278 291 227 272 156 87 152 20 254 277 278 250 249 267 269 269 237 241 251 263 276 288 301 303 296
83 86 75 58 73 73 94 62 342 256 258 88 68 27 43 55 156 52 284 320 340 35 312 333 322 229 5 48 2 349 345 127 2 354 319 32 358 65 131 109 1 360 344 315 339 23 323 352 118 271 215 43 278 285 337 293 312 315 46 287 324 290 289 307 300 301 311 305 149 140 273 254 342 4 210 230 281 289 271 263 262 260 254 260 281 285 279 279
86 76 107 137 100 67 40 16 290 280 243 63 56 75 94 151 250 210 260 315 350 301 280 89 309 334 11 103 348 165 4 346 57 299 18 340 33 24 13 21 16 354 241 291 101 276 158 262 57 31 343 319 271 49 332 324 235 125 304 324 248 248 346 266 1 299 323 332 295 164 221 283 254 331 296 325 274 267 251 263 261 265 255 261 270 269 279 285
352 43 79 49 23 7 32 332 271 257 162 55 75 41 56 164 78 178 38 323 310 327 334 271 335 254 355 247 82 69 244 327 352 341 76 24 12 26 24 2 6 5 5 7 341 326 326 280 62 357 131 41 19 285 265 302 305 82 234 271 5 354 273 310 149 110 217 201 249 148 275 245 275 269 258 348 286 197 192 242 254 301 316 280 270 286 300 302
52 323 49 343 26 3 344 350 295 259 62 83 90 74 105 135 355 317 24 349 359 339 294 296 23 11 0 337 322 346 318 266 288 341 19 201 128 35 9 81 10 28 25 327 4 138 303 292 64 343 235 122 259 222 336 334 290 307 268 27 157 233 310 255 290 268 251 264 290 86 282 298 11 318 73 341 32 88 304 313 334 322 325 300 317 319 313 309
73 60 139 59 337 329 298 281 315 43 74 80 62 103 314 60 54 360 358 321 288 244 333 22 60 337 344 349 6 356 323 336 355 346 15 12 50 299 58 15 67 117 239 230 281 340 304 291 167 217 266 228 152 224 226 153 233 256 323 123 288 270 231 129 244 282 297 277 298 279 292 247 214 251 308 9 359 328 326 331 346 337 330 324 319 317 315 308
74 112 37 4 353 331 329 271 51 46 73 66 64 110 29 41 5 28 350 315 216 269 43 20 1 27 150 35 298 167 349 27 324 22 351 20 348 142 205 214 195 193 209 220 230 108 218 277 278 176 196 69 280 196 268 145 125 200 194 216 72 231 247 248 267 308 346 273 301 282 359 296 180 218 199 300 324 328 328 335 346 327 311 312 316 315 312 310
73 69 31 11 333 337 285 183 64 44 52 69 109 56 311 32 323 237 198 233 123 342 109 124 208 89 69 192 174 338 48 119 5 267 33 193 257 81 151 229 277 133 26 278 333 289 243 197 285 123 205 306 277 172 247 197 194 172 213 214 148 222 351 321 277 214 252 281 268 305 297 282 305 150 330 314 328 339 348 338 330 327 325 323 314 308 307 308
262 92 26 356 345 295 288 44 43 28 74 188 55 106 299 156 198 205 191 262 239 296 230 171 178 121 231 139 203 209 296 174 222 214 169 227 282 357 78 18 356 18 18 200 224 274 256 220 265 312 311 257 280 37 357 238 290 277 260 257 219 190 225 242 269 88 343 246 242 201 265 290 285 122 318 316 340 360 355 338 323 322 326 323 317 311 307 302
74 52 333 351 340 72 97 52 33 347 88 57 81 268 133 204 204 41 347 51 303 13 1 80 6 44 131 352 357 224 299 284 328 283 200 310 155 298 139 43 60 332 317 319 8 39 324 320 296 286 270 290 23 73 354 348 324 313 307 290 47 343 328 267 279 296 35 228 28 358 337 268 288 71 87 325 355 357 325 325 316 315 315 313 309 302 297 289
35 87 159 359 334 355 64 76 302 52 64 77 213 45 6 20 25 38 42 356 310 279 80 36 38 359 106 302 227 259 219 255 177 347 258 253 244 1 144 232 313 264 232 142 169 109 321 252 283 264 261 246 100 133 149 122 302 283 203 97 170 250 283 300 318 7 304 8 256 212 234 273 296 96 1 63 224 236 239 239 295 302 303 305 303 300 301 303
123 88 38 33 31 148 82 98 95 55 90 65 79 80 25 46 7 14 349 22 23 7 48 40 196 57 45 26 234 356 225 325 156 290 258 145 256 100 35 64 325 110 305 56 348 46 288 106 54 302 318 306 173 153 143 124 190 244 282 108 340 55 66 155 142 219 291 256 253 263 269 280 281 44 295 307 320 317 316 316 271 292 308 311 308 304 301 302
115 294 48 335 10 41 83 309 117 124 164 135 131 47 15 101 50 174 318 32 352 70 235 62 357 305 97 341 49 204 349 13 299 122 291 251 261 102 54 20 330 48 32 358 328 322 260 306 319 321 330 328 336 337 336 327 336 285 229 76 128 180 133 259 272 222 247 284 151 239 261 259 281 303 306 311 316 317 321 324 326 315 306 302 305 307 309 309
11 98 322 9 12 44 80 38 69 114 121 156 56 322 186 60 127 157 246 77 2 29 341 222 128 323 59 253 323 43 285 78 281 313 342 273 218 83 48 8 31 48 14 268 327 288 316 1 237 252 261 281 291 290 286 98 307 299 292 260 190 142 160 283 278 258 252 271 272 254 251 281 293 294 306 314 319 320 324 330 332 329 324 314 302 300 300 300
137 75 1 355 336 51 85 39 40 344 108 196 98 338 19 336 276 31 213 320 81 307 125 33 303 330 359 333 356 296 249 281 121 62 239 236 303 48 55 48 58 4 321 313 201 191 92 275 227 260 250 250 271 277 282 296 278 281 285 295 142 169 178 201 218 245 90 319 272 270 260 238 283 297 305 311 316 320 325 330 327 325 322 314 308 305 307 312
77 240 98 233 99 1 8 32 11 69 32 63 103 238 19 335 39 38 293 125 197 198 263 171 77 80 239 285 308 283 322 297 30 256 343 184 333 320 101 38 29 330 312 101 212 301 293 272 356 109 268 252 253 268 275 280 267 260 276 279 283 185 175 205 237 243 236 249 252 271 290 294 290 296 301 302 310 315 319 320 315 303 297 308 318 322 323 323
74 125 118 310 93 307 20 248 2 49 63 43 117 60 33 44 54 1 337 318 71 34 4 24 358 11 325 262 268 308 265 356 315 275 165 322 315 332 358 138 125 321 276 133 130 156 189 245 280 208 284 293 261 255 270 267 272 284 257 262 267 254 229 218 250 252 225 237 251 269 280 283 285 289 293 300 309 310 305 295 297 314 320 317 318 321 324 327
147 130 119 5 78 105 10 7 43 16 62 340 80 2 50 4 28 17 122 351 20 349 239 340 329 343 315 216 246 265 251 220 257 286 290 83 304 145 277 277 317 186 293 253 356 210 195 271 85 257 300 296 305 286 218 230 247 275 284 280 273 272 272 254 247 259 245 264 266 266 275 278 278 275 288 304 302 305 317 327 325 317 316 317 320 323 324 325
82 30 138 120 63 5 347 10 30 28 62 0 49 352 191 9 40 309 338 293 21 335 348 328 324 278 145 274 229 261 276 254 258 240 279 166 277 65 301 66 14 305 28 128 142 337 336 268 96 340 317 297 297 320 301 289 247 248 283 293 288 244 267 219 210 198 179 235 263 277 275 270 305 340 321 312 315 319 322 325 321 316 314 317 323 321 319 321
108 132 61 110 88 312 25 328 291 124 48 341 24 4 39 13 290 288 190 198 239 296 303 311 308 281 240 280 266 267 7 275 293 353 11 347 3 329 323 297 283 272 313 150 328 228 111 311 321 6 307 270 285 329 314 310 300 235 264 272 322 300 261 263 243 179 222 232 281 276 281 326 323 317 316 316 317 316 321 328 318 312 309 308 311 317 318 318